Tracking 18980 objects as of 19-Feb-2018
HD Live streaming from Space Station
objects crossing your sky now

GALAXY 4R

Track GALAXY 4R now!
GALAXY 4R is classified as:


NORAD ID: 26298
Int'l Code: 2000-020A
Perigee: 35,894.4 km
Apogee: 35,941.8 km
Inclination: 8.9 °
Period: 1,442.5 minutes
Semi major axis: 42289 km
RCS: 26.0372 m2 (large)
Launch date: April 19, 2000
Source: United States (US)
Launch site: FRENCH GUIANA (FRGUI)

Television and Internet; 24 C-band, 24 Ku-band; North America.
aabbcc
Your satellite tracking list
Your tracking list is empty




NASA's NSSDC Master Catalog

Two Line Element Set (TLE):
1 26298U 00020A   18049.40965931  .00000068  00000-0  00000+0 0  9991
2 26298   8.8652  44.1152 0005600 228.5856 257.3636  0.99829833 65297
Source of the keplerian elements: AFSPC